Home   Weather   Hard   Past weeks

Flag for Austria Past Weather in Hard, Vorarlberg, Austria — Yesterday and Last 2 Weeks

Now
33 °F

Chilly.


Feels Like: 33 °F
Forecast: 26 / 45 °F
Wind: 1 mph from South

Location: Bregenz

Current Time: Dec 4, 2016 at 11:13:17 am

Latest Report: Dec 4, 2016 at 10:00 am


Visibility: N/A

Pressure: 30.35 "Hg

Humidity: 82%

Dew Point: 28 °F

Location of HardLocation

Past Weather in Hard — Graph

°F

Hard Temperature Yesterday

Maximum temperature yesterday: 41 °F (at 2:00 pm)
Minimum temperature yesterday: 27 °F (at 9:00 am)
Average temperature yesterday: 33 °F

High & Low Weather Summary for the Past Weeks

 TemperatureHumidityPressure
High66 °F (Nov 22, 12:00 am)96% (Nov 20, 2:00 am)30.66 "Hg (Nov 20, 2:00 am)
Low24 °F (Nov 29, 7:00 am)34% (Nov 22, 12:00 am)29.60 "Hg (Nov 21, 1:00 pm)
Average42 °F78%30.11 "Hg
* Reported Nov 19 9:00 am — Dec 4 9:00 am, Hard, Weather by CustomWeather, © 2016

Note: Actual official high and low records may vary slightly from our data, if they occured in-between our weather recording intervals... More about our weather records

Advertising

Hard Weather History for the Previous 24 Hours

Scroll right to see more
 ConditionsComfort  
Time TempWeatherWind HumidityBarometerVisibility
9:00 am
Sun, Dec 4
30 °FChilly.1 mph86%30.35 "HgN/A
8:00 am33 °FChilly.1 mph80%30.32 "HgN/A
7:00 am33 °FChilly.1 mph81%30.31 "HgN/A
6:00 am34 °FChilly.1 mph79%30.30 "HgN/A
5:00 am35 °FChilly.2 mph78%30.30 "HgN/A
4:00 am35 °FChilly.2 mph77%30.29 "HgN/A
3:00 am35 °FChilly.1 mph78%30.29 "HgN/A
2:00 am35 °FChilly.1 mph82%30.28 "HgN/A
1:00 am34 °FChilly.1 mph86%30.28 "HgN/A
12:00 am34 °FChilly.1 mph86%30.27 "HgN/A
11:00 pm
Sat, Dec 3
34 °FChilly.2 mph83%30.26 "HgN/A
10:00 pm34 °FChilly.1 mph86%30.24 "HgN/A
9:00 pm34 °FChilly.1 mph84%30.23 "HgN/A
8:00 pm36 °FChilly.1 mph82%30.22 "HgN/A
7:00 pm36 °FChilly.2 mph79%30.21 "HgN/A
6:00 pm36 °FChilly.2 mph76%30.20 "HgN/A
5:00 pm38 °FChilly.3 mph75%30.18 "HgN/A
4:00 pm39 °FChilly.1 mph77%30.17 "HgN/A
3:00 pm41 °FQuite cool.1 mph71%30.15 "HgN/A
2:00 pm41 °FQuite cool.2 mph69%30.15 "HgN/A
1:00 pm41 °FPassing clouds.1 mph70%30.15 "Hg4 mi
12:00 pm39 °FChilly.No wind73%30.17 "HgN/A
11:00 am36 °FChilly.No wind79%30.19 "HgN/A
Weather by CustomWeather, © 2016

See weather overviewHow to use our weather pages